Location: Marcé
(47.5801°N, 0.3280°W)
Time: 06:17:57
(UTC+01:00)

Altair - Pass Details

Date: 11 December 2021
Orbit: 1501 x 1683 km, 47.2° (Epoch: 21 January)

Event Time Altitude Azimuth Distance (km) Brightness Sun altitude
Rises 15:24:12 0° 241° (WSW) 4,828 11.4 11.8°
Reaches altitude 10° 15:27:22 10° 239° (WSW) 3,819 11.1 11.5°
Maximum altitude 15:36:57 71° 158° (SSE) 1,635 8.0 10.5°
Drops below altitude 10° 15:46:13 10° 77° (ENE) 3,692 9.1 9.5°
Sets 15:49:13 0° 75° (ENE) 4,660 9.5 9.2°
